User: anonymous
Location: Unspecified
(0.0000°N, 0.0000°E)
Time: 04:23:55
(UTC+02:00)
Language:

Cosmos 1733 Rocket - Orbit

View from above orbital plane
View from above orbital plane
View from above satellite
View from above satellite

Ground track
Ground track

The orbit data is extracted from the following two-line orbital elements,

1 16612U 86018B   14265.10165983  .00000320  00000-0  35812-4 0   225
2 16612 082.5181 153.5651 0017521 204.7463 267.7821 14.83630490443283
Epoch (UTC): 22 September 2014 02:26:23
Eccentricity: 0.0017521
inclination: 82.5181°
perigee height: 605 km
apogee height: 630 km
right ascension of ascending node: 153.5651°
argument of perigee: 204.7463°
revolutions per day: 14.83630490
mean anomaly at epoch: 267.7821°
orbit number at epoch: 44328

The dashed part of the orbit path shows where the satellite is in the earth's shadow,  

DLR